Back to catalog

COSMOS 375 DEB

AliveLEO
NORAD 19960·DEBRIS·🇷🇺 Russia

Launched Oct 30, 1970 from Baikonur Cosmodrome

Loading…

Next Passes (next 24 hours)

TLE

FreshSource: Space-Track

Epoch: Sep 14, 2026, 07:33 UTC

1 19960U 70091AY  26257.31487521  .00000222  00000-0  14796-3 0  9991
2 19960  62.9251 157.2667 0814807 229.3860 123.3488 13.16217205804711

Track COSMOS 375 DEB in real time with AllMySat

Download on the App Store